Location: LDNL
(36.4545°S, 141.6685°E)
Time: 03:36:17
(UTC+11:00)

A-11 Canister half - Pass Details

Date: 16 August 2022
Orbit: 1524 x 1684 km, 47.3° (Epoch: 05 October)

Event Time Altitude Azimuth Distance (km) Brightness Sun altitude
Rises 00:24:30 0° 240° (WSW) 4,711 - -67.3°
Reaches altitude 10° 00:27:43 10° 246° (WSW) 3,738 - -67.4°
Maximum altitude 00:36:24 43° 313° (NW) 2,103 - -67.5°
Drops below altitude 10° 00:45:19 10° 20° (NNE) 3,821 - -67.4°
Sets 00:48:40 0° 26° (NNE) 4,825 - -67.3°
